GW4053 Weather Reports


time (UTC)temp
C
wind
direction
speed
KPH
gust
KPH
rain 1hr
cm
rain 24hr
cm
rain mn
cm
humidity
%
barometer
mb
20260906052437 20 270 3.2 6.4 0.00 0.00 0.00 57 1024.3
20260906051338 20 290 3.2 6.4 0.00 0.00 0.00 57 1024.2
20260906050338 20 283 3.2 6.4 0.00 0.00 0.00 57 1024.2
20260906045337 20 270 3.2 6.4 0.00 0.00 0.00 57 1024.1
20260906044338 20 270 3.2 9.7 0.00 0.00 0.00 56 1023.9
20260906043337 20 288 3.2 6.4 0.00 0.00 0.00 56 1023.9
20260906042337 20 270 3.2 6.4 0.00 0.00 0.00 56 1023.8
20260906041337 20 282 3.2 6.4 0.00 0.00 0.00 56 1023.8
20260906040337 20 270 3.2 6.4 0.00 0.00 0.00 55 1023.8
20260906035338 20 280 3.2 6.4 0.00 0.00 0.00 55 1023.8
20260906034337 20 285 3.2 6.4 0.00 0.00 0.00 55 1023.6
20260906033237 21 284 3.2 6.4 0.00 0.00 0.00 55 1023.6
20260906032237 21 270 3.2 6.4 0.00 0.00 0.00 55 1023.4
20260906031237 21 270 3.2 8.0 0.00 0.00 0.00 54 1023.5
20260906030237 21 270 3.2 6.4 0.00 0.00 0.00 54 1023.5
20260906025237 21 280 3.2 6.4 0.00 0.00 0.00 54 1023.5
20260906024237 21 282 3.2 8.0 0.00 0.00 0.00 54 1023.4
20260906023237 21 270 3.2 6.4 0.00 0.00 0.00 53 1023.4
20260906022238 21 292 3.2 6.4 0.00 0.00 0.00 53 1023.4
20260906021238 22 282 3.2 6.4 0.00 0.00 0.00 53 1023.4
20260906020238 22 270 3.2 8.0 0.00 0.00 0.00 53 1023.3
20260906015237 22 299 4.8 8.0 0.00 0.00 0.00 53 1023.3
20260906014238 22 301 4.8 8.0 0.00 0.00 0.00 52 1023.3
20260906013138 22 288 4.8 6.4 0.00 0.00 0.00 52 1023.5
20260906012137 22 288 3.2 6.4 0.00 0.00 0.00 52 1023.4
20260906011137 22 298 3.2 6.4 0.00 0.00 0.00 51 1023.4
20260906010137 23 282 3.2 6.4 0.00 0.00 0.00 51 1023.6
20260906005137 23 306 3.2 6.4 0.00 0.00 0.00 50 1023.4
20260906004137 23 289 3.2 8.0 0.00 0.00 0.00 50 1023.4
20260906003137 23 294 3.2 8.0 0.00 0.00 0.00 50 1023.4
20260906002137 23 299 3.2 6.4 0.00 0.00 0.00 50 1023.2
20260906001137 23 281 3.2 8.0 0.00 0.00 0.00 50 1023.3
20260906000437 23 299 3.2 6.4 0.00 0.00 0.00 50 1023.3
20260905235040 23 287 3.2 6.4 0.00 0.00 0.00 50 1023.3
20260905234039 24 297 4.8 8.0 0.00 0.00 0.00 50 1023.2
20260905233039 24 299 3.2 6.4 0.00 0.00 0.00 49 1023.1
20260905232039 25 315 3.2 6.4 0.00 0.00 0.00 49 1023.2
20260905231040 25 310 3.2 6.4 0.00 0.00 0.00 49 1023.2
20260905230239 25 300 3.2 6.4 0.00 0.00 0.00 49 1023.2
20260905225139 25 309 3.2 6.4 0.00 0.00 0.00 49 1023.1
20260905224239 25 312 4.8 9.7 0.00 0.00 0.00 48 1023.2
20260905223340 25 316 3.2 6.4 0.00 0.00 0.00 47 1023.2
20260905215939 26 314 8.0 14.5 0.00 0.00 0.00 47 1023.1
20260905214939 26 317 6.4 14.5 0.00 0.00 0.00 47 1023.0
20260905213939 26 354 3.2 6.4 0.00 0.00 0.00 45 1022.9
20260905212939 26 320 6.4 9.7 0.00 0.00 0.00 46 1022.9
20260905211941 26 320 6.4 9.7 0.00 0.00 0.00 45 1022.7
20260905210940 27 323 3.2 9.7 0.00 0.00 0.00 45 1022.9
20260905210040 27 339 3.2 6.4 0.00 0.00 0.00 45 1022.9
20260905204940 27 324 4.8 11.3 0.00 0.00 0.00 45 1022.9
20260905203939 27 332 3.2 9.7 0.00 0.00 0.00 44 1022.7
20260905202939 27 324 3.2 9.7 0.00 0.00 0.00 44 1022.7
20260905201839 27 324 3.2 9.7 0.00 0.00 0.00 44 1022.5
20260905200941 27 354 3.2 8.0 0.00 0.00 0.00 42 1022.5
20260905195840 28 352 3.2 6.4 0.00 0.00 0.00 42 1022.5
20260905194839 28 14 3.2 9.7 0.00 0.00 0.00 41 1022.4
20260905185839 28 315 6.4 11.3 0.00 0.00 0.00 40 1021.8
20260905184839 29 326 4.8 14.5 0.00 0.00 0.00 39 1021.7
20260905183739 29 324 6.4 17.7 0.00 0.00 0.00 38 1021.5
20260905182739 29 352 6.4 14.5 0.00 0.00 0.00 38 1021.5
20260905181740 30 343 6.4 16.1 0.00 0.00 0.00 37 1021.5
20260905180739 30 320 9.7 17.7 0.00 0.00 0.00 36 1021.4
20260905175739 30 324 8.0 14.5 0.00 0.00 0.00 35 1021.2
20260905174739 31 323 8.0 17.7 0.00 0.00 0.00 34 1021.2
20260905173740 31 327 6.4 11.3 0.00 0.00 0.00 32 1021.0
20260905172739 32 315 8.0 16.1 0.00 0.00 0.00 30 1020.7
20260905171739 33 328 6.4 16.1 0.00 0.00 0.00 29 1021.1
20260905170739 34 303 6.4 14.5 0.00 0.00 0.00 28 1021.1
20260905165741 34 296 8.0 17.7 0.00 0.00 0.00 28 1021.0
20260905164639 34 287 9.7 17.7 0.00 0.00 0.00 27 1021.2
20260905163640 34 285 9.7 19.3 0.00 0.00 0.00 26 1021.0
20260905162639 34 274 11.3 32.2 0.00 0.00 0.00 26 1021.0
20260905161639 34 266 14.5 25.7 0.00 0.00 0.00 25 1020.8
20260905160639 34 262 14.5 30.6 0.00 0.00 0.00 25 1020.8
20260905155639 35 284 12.9 24.1 0.00 0.00 0.00 25 1020.8
20260905154640 35 283 11.3 27.4 0.00 0.00 0.00 24 1020.7
20260905153640 35 270 11.3 27.4 0.00 0.00 0.00 25 1020.6
20260905152640 35 264 16.1 29.0 0.00 0.00 0.00 24 1020.7
20260905151640 35 270 14.5 29.0 0.00 0.00 0.00 24 1020.6
20260905150539 35 263 17.7 38.6 0.00 0.00 0.00 24 1020.5
20260905150239 35 276 12.9 25.7 0.00 0.00 0.00 23 1020.5
20260905145239 35 253 14.5 27.4 0.00 0.00 0.00 24 1020.6
20260905144139 34 257 17.7 27.4 0.00 0.00 0.00 24 1020.7
20260905143241 34 253 16.1 30.6 0.00 0.00 0.00 25 1020.8
20260905142139 34 249 16.1 30.6 0.00 0.00 0.00 26 1020.7
20260905141140 33 246 17.7 37.0 0.00 0.00 0.00 26 1020.8
20260905140139 33 246 17.7 33.8 0.00 0.00 0.00 26 1020.7
20260905135140 33 264 14.5 30.6 0.00 0.00 0.00 27 1020.7
20260905134139 33 248 17.7 37.0 0.00 0.00 0.00 27 1020.8
20260905133139 33 247 14.5 37.0 0.00 0.00 0.00 29 1020.7
20260905132139 33 248 17.7 33.8 0.00 0.00 0.00 29 1021.0
20260905131139 33 247 14.5 27.4 0.00 0.00 0.00 29 1020.8
20260905130139 33 242 17.7 32.2 0.00 0.00 0.00 30 1021.1
20260905125039 32 244 16.1 43.5 0.00 0.00 0.00 30 1021.1
20260905124541 32 249 12.9 22.5 0.00 0.00 0.00 30 1021.1
20260905122539 32 250 16.1 32.2 0.00 0.00 0.00 32 1021.3
20260905121539 32 245 14.5 29.0 0.00 0.00 0.00 31 1021.4
20260905120439 32 242 14.5 27.4 0.00 0.00 0.00 32 1021.6
20260905115439 32 265 14.5 25.7 0.00 0.00 0.00 31 1021.5
20260905114439 31 263 17.7 32.2 0.00 0.00 0.00 32 1021.7
20260905113439 31 266 14.5 33.8 0.00 0.00 0.00 31 1021.7
20260905112439 31 270 12.9 30.6 0.00 0.00 0.00 32 1021.7
20260905111439 31 259 12.9 30.6 0.00 0.00 0.00 33 1021.8
20260905110440 30 287 11.3 25.7 0.00 0.00 0.00 33 1021.8
20260905105439 30 256 14.5 27.4 0.00 0.00 0.00 32 1021.7
20260905104439 30 274 14.5 25.7 0.00 0.00 0.00 32 1021.7
20260905103439 30 267 11.3 25.7 0.00 0.00 0.00 36 1021.8
20260905102439 29 284 11.3 22.5 0.00 0.00 0.00 36 1021.9
20260905101439 28 286 9.7 20.9 0.00 0.00 0.00 38 1021.8
20260905100439 28 279 11.3 25.7 0.00 0.00 0.00 40 1022.0
20260905095339 27 295 9.7 17.7 0.00 0.00 0.00 41 1022.1
20260905094339 26 282 3.2 11.3 0.00 0.00 0.00 52 1022.4
20260905093339 26 320 3.2 9.7 0.00 0.00 0.00 53 1022.5
20260905092339 26 353 3.2 9.7 0.00 0.00 0.00 54 1022.5
20260905091339 25 293 3.2 11.3 0.00 0.00 0.00 54 1022.6
20260905090340 25 358 3.2 11.3 0.00 0.00 0.00 56 1022.7
20260905085339 24 15 4.8 11.3 0.00 0.00 0.00 56 1022.8
20260905084339 24 346 3.2 11.3 0.00 0.00 0.00 56 1022.8
20260905083339 23 9 4.8 11.3 0.00 0.00 0.00 57 1023.2
20260905082340 23 16 4.8 11.3 0.00 0.00 0.00 57 1023.2
20260905081339 23 27 4.8 11.3 0.00 0.00 0.00 57 1023.0
20260905080239 23 14 4.8 11.3 0.00 0.00 0.00 58 1023.0
20260905075239 22 17 4.8 9.7 0.00 0.00 0.00 58 1023.1
20260905074239 22 15 4.8 12.9 0.00 0.00 0.00 59 1023.0
20260905073239 22 16 4.8 12.9 0.00 0.00 0.00 60 1023.2
20260905072240 22 19 4.8 11.3 0.00 0.00 0.00 60 1023.2
20260905071240 21 28 4.8 12.9 0.00 0.00 0.00 60 1023.3
20260905065219 21 14 4.8 9.7 0.00 0.00 0.00 60 1023.3
20260905064219 21 17 3.2 8.0 0.00 0.00 0.00 61 1023.4
20260905063319 21 349 3.2 8.0 0.00 0.00 0.00 61 1023.5
20260905062219 20 352 3.2 9.7 0.00 0.00 0.00 60 1023.4
20260905061220 20 342 3.2 8.0 0.00 0.00 0.00 60 1023.3
20260905060219 20 317 3.2 6.4 0.00 0.00 0.00 59 1023.3
20260905055219 20 315 3.2 6.4 0.00 0.00 0.00 59 1023.3
20260905054219 20 306 3.2 4.8 0.00 0.00 0.00 59 1023.3
20260905053119 20 289 3.2 8.0 0.00 0.00 0.00 60 1023.3